This is the latest recevied weather packets stored in our database for station/object CA3PBK-13. If no packets are shown the sender has not sent any weather packets the latest 1 day(s).
| Time | Temp. | Humidity | Pressure | Rain* | Wind** | Luminosity | Snow |
|---|---|---|---|---|---|---|---|
| 1778096228 | 17.22° C | 1% | 930.2 hPa | 0 mm | - | - | - |
| 1778095148 | 17.78° C | 99% | 930.2 hPa | 0 mm | - | - | - |
| 1778094668 | 17.78° C | 99% | 930.3 hPa | 0 mm | - | - | - |
| 1778092749 | 18.33° C | 99% | 930.2 hPa | 0 mm | - | - | - |
| 1778090348 | 18.89° C | 99% | 930.4 hPa | 0 mm | - | - | - |
| 1778088910 | 19.44° C | 99% | 930.8 hPa | 0 mm | - | - | - |
| 1778088429 | 19.44° C | 99% | 930.8 hPa | 0 mm | - | - | - |
| 1778086869 | 19.44° C | 99% | 930.6 hPa | 0 mm | - | - | - |
| 1778086148 | 20° C | 99% | 930.5 hPa | 0 mm | - | - | - |
| 1778085429 | 20.56° C | 99% | 930.5 hPa | 0 mm | - | - | - |
| 1778083869 | 21.67° C | 99% | 930 hPa | 0 mm | - | - | - |
| 1778082429 | 21.67° C | 99% | 930.2 hPa | 0 mm | - | - | - |
| 1778080510 | 21.67° C | 99% | 929.7 hPa | 0 mm | - | - | - |
| 1778079310 | 20.56° C | 99% | 929.9 hPa | 0 mm | - | - | - |
| 1778076910 | 20° C | 99% | 929.6 hPa | 0 mm | - | - | - |
| 1778076428 | 20° C | 99% | 929.4 hPa | 0 mm | - | - | - |
| 1778076189 | 20° C | 99% | 929.3 hPa | 0 mm | - | - | - |
| 1778075110 | 17.78° C | 99% | 929.1 hPa | 0 mm | - | - | - |
| 1778073910 | 17.78° C | 99% | 929.1 hPa | 0 mm | - | - | - |
| 1778073310 | 17.78° C | 99% | 929.3 hPa | 0 mm | - | - | - |
| 1778073189 | 17.78° C | 99% | 929.3 hPa | 0 mm | - | - | - |
| 1778073069 | 17.78° C | 99% | 929.3 hPa | 0 mm | - | - | - |
| 1778072110 | 16.67° C | 1% | 929.2 hPa | 0 mm | - | - | - |
| 1778070910 | 15.56° C | 1% | 929.2 hPa | 0 mm | - | - | - |
| 1778070310 | 14.44° C | 1% | 929.4 hPa | 0 mm | - | - | - |
* Rain latest hour (hover to see other rain measurements)
** Current wind speed in m/s (hover to see current wind gust speed)